Rbgn^[z[y[W
メイン
   新天体発見情報
     Comet C/2017 U2 (Fuls)
投稿するにはまず登録を

フラット表示 前のトピック | 次のトピック
投稿者 スレッド
佐藤裕久
投稿日時: 2017-11-3 11:18
モデレータ
登録日: 2005-6-12
居住地: 日本
投稿: 1817
オンライン
Comet C/2017 U2 (Fuls)

D. C. Fulsの通報によると、10月22日UT、Mt Lemmonの1.5-m 反射望遠鏡で得たCCD捜索画像から
彗星を発見した。この天体は、およそ17"のコマとp.a. 10°に短い尾を持っている。
10月23.2日UT、Fulsによるフォローアップ観測では、16"のコマとp.a. 20°に14"の尾が見える。
光度は20.5-21.1等であった。小惑星センターのNEOCP webpageに公表後、R. Weryk (ハワイ大学
天文学研究所)の報告によれば、9月8.3日、Haleakalaにある1.8-m 
Pan-STARRS1望遠鏡で得た発見前の画像を確認した。このi-バンド画像では彗星状には見えず、
光度は20.2-20.8等であった。10月26.2日、E. J. Christensenによれば、Catalina Sky サーベイ
の1.55-m 反射望遠鏡で得たCCD画像では、5"のコマと、北に向かって約10"伸びた尾が見える。
10月27.1日の追加観測では、北に広がった拡散した5"のコマが見える。

発見位置は次のとおり、

     2017 UT             R.A. (2000) Decl.        m1    Observer
     Oct. 22.07896   21 05 35.58   +14 38 24.0   21.2   Fuls
          22.08414   21 05 35.56   +14 38 21.0   21.9     "
          22.08930   21 05 35.48   +14 38 18.6   21.4     "
          22.09452   21 05 35.50   +14 38 15.0   21.4     "
          22.20843   21 05 35.18   +14 37 04.7   20.4     "
          22.21600   21 05 35.08   +14 36 59.1   20.5     "
          22.22352   21 05 35.07   +14 36 56.0            "
          22.23089   21 05 35.04   +14 36 50.5   20.8     "

準放物線軌道要素と位置推算表は次のとおり、

Orbital elements:
    C/2017 U2 (Fuls)
Epoch 2017 Sept. 4.0 TT = JDT 2458000.5
T 2017 Sept. 3.01108 TT                                 MPCW
q   6.7003262            (2000.0)            P               Q
z  +0.0002864      Peri.  148.20287     +0.75905207     +0.41476715
 +/-0.0002170      Node   149.73222     -0.56241398     +0.02952452
e   0.9980808      Incl.   95.40018     +0.32791838     -0.90944847
From 34 observations 2017 Sept. 8-Oct. 27, mean residual 0".3.

Ephemeris:
    C/2017 U2 (Fuls)
Date    TT    R. A. (2000) Decl.     Delta      r     Elong.  Phase   m1
2017 09 28    21 09 51.9 +18 57 23   6.0022  6.7024   131.0     6.5  21.2
...
2017 10 13    21 06 28.3 +16 13 41   6.1585  6.7056   119.4     7.4  21.2
...
2017 10 21    21 05 39.0 +14 49 31   6.2613  6.7079   112.7     7.9  21.2
...
2017 10 27    21 05 29.1 +13 48 48   6.3454  6.7099   107.4     8.1  21.3
2017 10 28    21 05 29.7 +13 38 55   6.3599  6.7103   106.5     8.2  21.3
2017 10 29    21 05 30.9 +13 29 06   6.3746  6.7106   105.6     8.2  21.3
...
2017 11 04    21 05 50.9 +12 31 49   6.4650  6.7129   100.3     8.4  21.3
...
2017 11 12    21 06 50.5 +11 20 00   6.5906  6.7164    93.0     8.5  21.4
...
2017 11 27    21 10 15.5 +09 20 44   6.8337  6.7240    79.5     8.3  21.4

(CBET 4451、MPEC 2017-U239)
フラット表示 前のトピック | 次のトピック

題名 投稿者 日時
 » Comet C/2017 U2 (Fuls) 佐藤裕久 2017-11-3 11:18

投稿するにはまず登録を
 
© 1999-2013 Tsutomu Seki.